Find Starlink 34842

NORAD ID: 65235 Int'l Des: 2025-179 Owner: SPXS Country: US Constellation: starlink operational
LEOCIRCULARRETROGRADESSO

当前视图

正在加载3D地球...

About Starlink 34842

Starlink 34842 (NORAD 65235) is a starlink constellation satellite (v2 mini) launched Aug 18, 2025 by SPXS of US. It operates in LEO, CIRCULAR, RETROGRADE, SSO orbit with a mass of 575.00 kg.

即将过境

Passes for default location (London). Set your location on the main map for personalized predictions.

高度历史

Loading altitude history...

两行轨道根数

1 65235U 25179A 26238.11088753 .00021049 00000-0 65234-3 0 9998
2 65235 97.2779 277.8250 0001247 93.4238 266.7148 15.33451968 57481
Epoch: Aug 26, 2026 • Age: 13 hours

当前状态

高度 467.7 km
远地点 / 近地点 N/A
速度 7.63 km/s
星下点 9.44°N, 73.78°E
发射日期 Aug 18, 2025
运行时间 1 year
类型 internet

技术详情

分类 Payload
质量 575.00 kg
干质量 530.00 kg
总质量 575.00 kg
长度 0.30 m
直径 4.10 m
跨度 29.00 m
形状 Box + pan
制造商 SPXS
平台类型 Starlink V2MO
阶段状态 In Orbit
所有者/国家 SPXS/US

Most Searched